When you browse on this site, cookies collect data to enhance your experience and personalize the content and advertising you see.
Visit our Privacy Policy to learn more. By continuing to use the site, you agree to this use of cookies and data.
  • In Netherlands
  • List of Countries
  • For 7 days
  • Water Temperature
  • Satellite Maps
  • Weather Map
  • Weather Widgets
  • user-avatar
    Login

    Hourly Weather Shkoder

    Today, 17 January, Thursday

    Time Temperature Precipitation Wind Pressure Humidity
    00:00 +2°C° 0 mm 1 mps 744 mmHg 79%
    01:00 +2°C° 0 mm 1 mps 744 mmHg 79%
    02:00 +2°C° 0 mm 1 mps 743 mmHg 79%
    03:00 +2°C° 0 mm 1 mps 743 mmHg 79%
    04:00 +2°C° 0 mm 1 mps 743 mmHg 79%
    05:00 +2°C° 0 mm 1 mps 743 mmHg 79%
    06:00 +1°C° 0 mm 2 mps 743 mmHg 79%
    07:00 +1°C° 0 mm 2 mps 743 mmHg 79%
    08:00 +3°C° 0 mm 1 mps 743 mmHg 79%
    09:00 +5°C° 0 mm 1 mps 743 mmHg 79%
    10:00 +7°C° 0 mm 1 mps 743 mmHg 79%
    11:00 +7°C° 0 mm 1 mps 742 mmHg 78%
    12:00 +8°C° 0 mm 1 mps 742 mmHg 77%
    13:00 +9°C° 0 mm 1 mps 742 mmHg 76%
    14:00 +8°C° 0 mm 1 mps 741 mmHg 76%
    15:00 +7°C° 0 mm 1 mps 741 mmHg 76%
    16:00 +7°C° 0 mm 1 mps 741 mmHg 77%
    17:00 +6°C° 0 mm 1 mps 741 mmHg 76%
    18:00 +5°C° 0 mm 1 mps 741 mmHg 75%
    19:00 +3°C° 0 mm 2 mps 741 mmHg 74%
    20:00 +4°C° 0 mm 2 mps 741 mmHg 74%
    21:00 +4°C° 0 mm 2 mps 741 mmHg 73%
    22:00 +4°C° 0 mm 2 mps 741 mmHg 72%
    23:00 +4°C° 0 mm 2 mps 741 mmHg 74%

    Tomorrow, 18 January, Friday

    Time Temperature Precipitation Wind Pressure Humidity
    00:00 +4°C° 0 mm 2 mps 741 mmHg 77%
    01:00 +5°C° 0 mm 2 mps 741 mmHg 79%
    02:00 +5°C° 0 mm 2 mps 740 mmHg 80%
    03:00 +5°C° 0 mm 2 mps 740 mmHg 82%
    04:00 +6°C° 0 mm 2 mps 739 mmHg 83%
    05:00 +7°C° 0 mm 1 mps 739 mmHg 84%
    06:00 +7°C° 0 mm 1 mps 739 mmHg 84%
    07:00 +7°C° 0 mm 1 mps 739 mmHg 85%
    08:00 +7°C° 0 mm 1 mps 739 mmHg 85%
    09:00 +8°C° 0 mm 1 mps 739 mmHg 86%
    10:00 +8°C° 0 mm 1 mps 739 mmHg 86%
    11:00 +8°C° 0 mm 1 mps 739 mmHg 86%
    12:00 +9°C° 0 mm 1 mps 738 mmHg 86%
    13:00 +9°C° 0 mm 1 mps 738 mmHg 85%
    14:00 +9°C° 0.1 mm 1 mps 738 mmHg 87%
    15:00 +9°C° 0.1 mm 1 mps 738 mmHg 88%
    16:00 +9°C° 0.1 mm 1 mps 738 mmHg 89%
    17:00 +8°C° 0.1 mm 1 mps 738 mmHg 90%
    18:00 +8°C° 0.1 mm 1 mps 739 mmHg 91%
    19:00 +8°C° 0.1 mm 1 mps 739 mmHg 91%
    20:00 +8°C° 0.4 mm 1 mps 739 mmHg 91%
    21:00 +8°C° 0.4 mm 1 mps 740 mmHg 91%
    22:00 +8°C° 0.4 mm 1 mps 740 mmHg 90%
    23:00 +8°C° 0.7 mm 1 mps 740 mmHg 90%

    Day after tomorrow, 19 January, Saturday

    Time Temperature Precipitation Wind Pressure Humidity
    00:00 +7°C° 0.7 mm 1 mps 740 mmHg 90%
    01:00 +7°C° 0.7 mm 1 mps 740 mmHg 90%
    02:00 +7°C° 0.6 mm 1 mps 740 mmHg 90%
    03:00 +6°C° 0.6 mm 2 mps 740 mmHg 89%
    04:00 +6°C° 0.6 mm 2 mps 740 mmHg 88%
    05:00 +6°C° 0.2 mm 2 mps 740 mmHg 87%
    06:00 +6°C° 0.2 mm 2 mps 740 mmHg 86%
    07:00 +6°C° 0.2 mm 2 mps 740 mmHg 86%
    08:00 +7°C° 0 mm 2 mps 740 mmHg 83%
    09:00 +8°C° 0 mm 2 mps 740 mmHg 81%
    10:00 +8°C° 0 mm 2 mps 740 mmHg 79%
    11:00 +9°C° 0 mm 2 mps 739 mmHg 76%
    12:00 +11°C° 0 mm 1 mps 739 mmHg 74%
    13:00 +12°C° 0 mm 1 mps 739 mmHg 71%
    14:00 +11°C° 0 mm 1 mps 738 mmHg 73%
    15:00 +10°C° 0 mm 1 mps 738 mmHg 76%
    16:00 +10°C° 0 mm 1 mps 738 mmHg 78%
    17:00 +9°C° 0.1 mm 1 mps 738 mmHg 79%
    18:00 +9°C° 0.1 mm 1 mps 738 mmHg 80%
    19:00 +8°C° 0.1 mm 1 mps 738 mmHg 81%
    20:00 +8°C° 0.1 mm 1 mps 738 mmHg 81%
    21:00 +8°C° 0.1 mm 1 mps 738 mmHg 81%
    22:00 +8°C° 0.1 mm 1 mps 738 mmHg 80%
    23:00 +8°C° 0.6 mm 1 mps 738 mmHg 82%

    20 January, Sunday

    Time Temperature Precipitation Wind Pressure Humidity
    00:00 +8°C° 0.6 mm 1 mps 738 mmHg 83%
    01:00 +8°C° 0.6 mm 1 mps 738 mmHg 84%
    02:00 +8°C° 1.6 mm 1 mps 738 mmHg 87%
    03:00 +7°C° 1.6 mm 1 mps 737 mmHg 89%
    04:00 +7°C° 1.6 mm 1 mps 737 mmHg 91%
    05:00 +7°C° 1.1 mm 1 mps 737 mmHg 92%
    06:00 +7°C° 1.1 mm 1 mps 737 mmHg 92%
    07:00 +8°C° 1.1 mm 1 mps 738 mmHg 93%
    08:00 +8°C° 0.7 mm 1 mps 738 mmHg 91%
    09:00 +8°C° 0.7 mm 1 mps 738 mmHg 90%
    10:00 +9°C° 0.7 mm 1 mps 738 mmHg 89%
    11:00 +9°C° 0.3 mm 1 mps 738 mmHg 85%
    12:00 +10°C° 0.3 mm 1 mps 738 mmHg 81%
    13:00 +10°C° 0.3 mm 2 mps 738 mmHg 77%
    14:00 +10°C° 0.1 mm 1 mps 738 mmHg 78%
    15:00 +10°C° 0.1 mm 1 mps 738 mmHg 79%
    16:00 +10°C° 0.1 mm 1 mps 738 mmHg 80%
    17:00 +9°C° 0 mm 1 mps 738 mmHg 82%
    18:00 +8°C° 0 mm 1 mps 739 mmHg 84%
    19:00 +7°C° 0 mm 1 mps 739 mmHg 86%
    20:00 +7°C° 0 mm 1 mps 739 mmHg 87%
    21:00 +7°C° 0 mm 1 mps 740 mmHg 87%
    22:00 +6°C° 0 mm 1 mps 740 mmHg 88%
    23:00 +6°C° 0 mm 1 mps 740 mmHg 88%

    21 January, Monday

    Time Temperature Precipitation Wind Pressure Humidity
    00:00 +6°C° 0 mm 1 mps 740 mmHg 89%
    01:00 +6°C° 0 mm 1 mps 740 mmHg 89%
    02:00 +6°C° 0.1 mm 1 mps 740 mmHg 89%
    03:00 +6°C° 0.1 mm 1 mps 740 mmHg 89%
    04:00 +6°C° 0.1 mm 1 mps 740 mmHg 89%
    05:00 +6°C° 0.7 mm 1 mps 740 mmHg 88%
    06:00 +6°C° 0.7 mm 1 mps 740 mmHg 88%
    07:00 +6°C° 0.7 mm 1 mps 740 mmHg 87%
    08:00 +6°C° 1.2 mm 1 mps 740 mmHg 87%
    09:00 +7°C° 1.2 mm 1 mps 740 mmHg 87%
    10:00 +7°C° 1.2 mm 1 mps 740 mmHg 86%
    11:00 +6°C° 1 mm 2 mps 740 mmHg 86%
    12:00 +6°C° 1 mm 2 mps 740 mmHg 86%
    13:00 +6°C° 1 mm 2 mps 739 mmHg 86%
    14:00 +6°C° 0.8 mm 2 mps 739 mmHg 86%
    15:00 +6°C° 0.8 mm 2 mps 739 mmHg 86%
    16:00 +6°C° 0.8 mm 2 mps 739 mmHg 86%
    17:00 +6°C° 0.5 mm 2 mps 739 mmHg 85%
    18:00 +6°C° 0.5 mm 2 mps 739 mmHg 85%
    19:00 +4°C° 0.5 mm 3 mps 739 mmHg 85%
    20:00 +4°C° 0.3 mm 3 mps 739 mmHg 85%
    21:00 +4°C° 0.3 mm 3 mps 739 mmHg 84%
    22:00 +4°C° 0.3 mm 3 mps 738 mmHg 84%
    23:00 +4°C° 0.6 mm 3 mps 738 mmHg 84%

    22 January, Tuesday

    Time Temperature Precipitation Wind Pressure Humidity
    00:00 +4°C° 0.6 mm 3 mps 738 mmHg 85%
    01:00 +5°C° 0.6 mm 2 mps 737 mmHg 85%
    02:00 +4°C° 1.4 mm 3 mps 737 mmHg 86%
    03:00 +4°C° 1.4 mm 3 mps 736 mmHg 86%
    04:00 +4°C° 1.4 mm 3 mps 735 mmHg 87%
    05:00 +3°C° 1.9 mm 3 mps 735 mmHg 87%
    06:00 +3°C° 1.9 mm 3 mps 735 mmHg 88%
    07:00 +3°C° 1.9 mm 3 mps 734 mmHg 88%
    08:00 +4°C° 0.5 mm 3 mps 734 mmHg 87%
    09:00 +5°C° 0.5 mm 3 mps 733 mmHg 86%
    10:00 +5°C° 0.5 mm 3 mps 733 mmHg 85%
    11:00 +5°C° 0.7 mm 3 mps 732 mmHg 85%
    12:00 +7°C° 0.7 mm 2 mps 731 mmHg 86%
    13:00 +7°C° 0.7 mm 2 mps 730 mmHg 87%
    14:00 +7°C° 1.3 mm 2 mps 730 mmHg 88%
    15:00 +7°C° 1.3 mm 2 mps 730 mmHg 89%
    16:00 +7°C° 1.3 mm 3 mps 729 mmHg 90%
    17:00 +7°C° 3.1 mm 2 mps 729 mmHg 92%
    18:00 +6°C° 3.1 mm 2 mps 730 mmHg 95%
    19:00 +6°C° 3.1 mm 2 mps 730 mmHg 97%
    20:00 +6°C° 1.2 mm 2 mps 730 mmHg 96%
    21:00 +6°C° 1.2 mm 2 mps 731 mmHg 94%
    22:00 +6°C° 1.2 mm 2 mps 731 mmHg 93%
    23:00 +5°C° 0 mm 2 mps 731 mmHg 92%
    Show more